User: anonymous   Login
Location: St. Malo Provincial Park
(49.3214°N, 96.9305°W)
Time: 13:14:10
(UTC-05:00)
Language:

Iridium 6 - Orbit

View from above orbital plane
View from above orbital plane
View from above satellite
View from above satellite

Ground track
Ground track

The orbit data is extracted from the following two-line orbital elements,

1 24794U 97020C   17269.45794099 -.00000082  00000-0 -36526-4 0  9994
2 24794  86.3917 276.5551 0002163  86.3274 273.8169 14.34216473 67717
Epoch (UTC): 26 September 2017 10:59:26
Eccentricity: 0.0002163
inclination: 86.3917°
perigee height: 776 km
apogee height: 779 km
right ascension of ascending node: 276.5551°
argument of perigee: 86.3274°
revolutions per day: 14.34216473
mean anomaly at epoch: 273.8169°
orbit number at epoch: 6771

The dashed part of the orbit path shows where the satellite is in the earth's shadow,  

DLR